Hourly Data Report for May 09, 2003

SHERBROOKE A
QUEBEC

45°26'00.000" N
71°41'00.000" W
241.40 m
7028124
71610
YSC

Download Data

Hourly Data (May 2003)
Hourly Data Report for May 9, 2003
TIME
LST
Temp Definition
°C
Dew Point Definition
°C
Rel Hum Definition
%
Precip. Amount Definition
mm

Wind Dir Definition
10's deg

Wind Spd Definition
km/h
Visibility Definition
km
Stn Press Definition
kPa
Hmdx Definition


Wind Chill Definition


Weather Definition


00:00 9.1 3.0 66   3 15 15.0 98.46      
01:00 7.3 2.9 74   3 6 15.0 98.45      
02:00 6.4 2.9 78   5 6 15.0 98.44      
03:00 5.7 3.1 83   23 7 15.0 98.50      
04:00 5.8 3.3 84   3 7 8.0 98.51     Rain
05:00 4.2 2.6 89   3 15 15.0 98.50     Rain
06:00 3.4 2.0 91   3 15 15.0 98.57     Rain
07:00 3.2 1.7 90   1 11 19.3 98.62     Rain
08:00 3.3 2.2 92   1 13 19.3 98.64     Rain
09:00 3.9 2.9 93   3 15 19.3 98.67     Rain Showers
10:00 5.3 3.7 89   4 17 24.1 98.65     Mostly Cloudy
11:00 6.9 4.9 87   1 11 24.1 98.68     Cloudy
12:00 7.3 4.6 83   2 6 24.1 98.68     Mostly Cloudy
13:00 9.2 4.5 72   36 9 24.1 98.66     Mostly Cloudy
14:00 10.3 4.1 65   4 13 24.1 98.61     Mostly Cloudy
15:00 10.7 3.1 59   3 9 24.1 98.60     Mostly Cloudy
16:00 10.9 3.0 58   4 9 24.1 98.56     Mostly Cloudy
17:00 10.6 1.4 53   35 7 15.0 98.61      
18:00 11.1 0.5 48   35 11 15.0 98.57      
19:00 9.0 0.7 56   2 6 15.0 98.60      
20:00 6.8 0.6 65   34 6 15.0 98.66      
21:00 6.8 0.9 66   2 6 15.0 98.65      
22:00 6.9 0.9 66   4 9 15.0 98.62      
23:00 6.5 1.2 69   3 11 15.0 98.56      

Notes on Data Quality.

Legend

  • E = Estimated
  • M = Missing
  • NA = Not Available*
  • [empty] = Indicates an unobserved value
Date modified: